Volver al catálogo

SL-16 DEB

ActivoLEO
NORAD 39850·DEBRIS·🇷🇺 Russia

Lanzado Dec 25, 1992 desde Baikonur Cosmodrome

Loading…

Próximos Pases (próximas 24 horas)

TLE

ObsoletoSource: Space-Track

Época: Aug 31, 2026, 23:40 UTC

1 39850U 92093LC  26243.98645660  .00000471  00000-0  29086-3 0  9999
2 39850  71.3393 335.3799 0091968 280.3850  78.6915 14.08181171347003

Sigue SL-16 DEB en tiempo real con AllMySat

Download on the App Store